This demonstration page uses our WeatherBlox Daily Observations layout. Learn more.

Left ArrowRight Arrow

Hourly Observations for October 6, 2022

Temp ( °F °C ) Dew Point ( °F °C ) Humidity (%) Winds ( mph kmh ) Pressure ( in mb ) Visibility ( mi km ) Precip ( " mm )
12:15 am 00:15 Clear 50 9.9 45 7.3 84 84 Calm 30.09 1019 10 16 0.00 0.00
12:35 am 00:35 Clear 49 9.7 46 7.6 87 87 Calm 30.09 1019 10 16 0.00 0.00
12:55 am 00:55 Clear 51 10.5 46 8 84 84 Calm 30.09 1019 10 16 0.00 0.00
1:15 am 01:15 Clear 51 10.3 47 8.4 88 88 Calm 30.09 1019 10 16 0.00 0.00
1:35 am 01:35 Partly Cloudy 51 10.4 47 8.6 89 89 Calm 30.08 1019 10 16 0.00 0.00
1:55 am 01:55 Partly Cloudy 51 10.5 48 9 90 90 Calm 30.08 1019 10 16 0.00 0.00
2:15 am 02:15 Clear 51 10.5 48 8.9 90 90 Calm 30.08 1019 10 16 0.00 0.00
2:35 am 02:35 Partly Cloudy 51 10.5 48 8.9 90 90 Calm 30.08 1019 10 16 0.00 0.00
2:55 am 02:55 Clear 51 10.6 47 8.6 87 87 Calm 30.08 1019 10 16 0.00 0.00
3:15 am 03:15 Clear 49 9.2 46 8 92 92 Calm 30.08 1019 10 16 0.00 0.00
3:35 am 03:35 Clear 49 9.7 47 8.2 90 90 Calm 30.08 1019 10 16 0.00 0.00
3:55 am 03:55 Clear 49 9.6 47 8.2 91 91 Calm 30.07 1018 10 16 0.00 0.00
4:15 am 04:15 Mostly Cloudy 50 9.9 47 8.5 91 91 Calm 30.07 1018 10 16 0.00 0.00
4:35 am 04:35 Mostly Cloudy 51 10.4 48 8.8 90 90 Calm 30.07 1018 10 16 0.00 0.00
4:55 am 04:55 Mostly Cloudy 50 10.2 47 8.6 90 90 Calm 30.07 1018 10 16 0.00 0.00
5:15 am 05:15 Partly Cloudy 49 9.6 47 8.5 93 93 Calm 30.07 1018 10 16 0.00 0.00
5:35 am 05:35 Partly Cloudy 50 10 47 8.6 91 91 Calm 30.07 1018 10 16 0.00 0.00
5:55 am 05:55 Clear 50 10.1 47 8.6 90 90 Calm 30.06 1018 10 16 0.00 0.00
6:15 am 06:15 Partly Cloudy 52 10.9 47 8.4 85 85 W 3 6 30.07 1018 10 16 0.00 0.00
6:35 am 06:35 Partly Cloudy 52 11.3 46 7.8 79 79 W 5 7 30.07 1018 10 16 0.00 0.00
6:55 am 06:55 Clear 54 12.3 42 5.8 64 64 WSW 5 7 30.06 1018 10 16 0.00 0.00
7:15 am 07:15 Partly Cloudy 52 11.2 42 5.7 69 69 SW 5 7 30.07 1018 10 16 0.00 0.00
7:35 am 07:35 Mostly Cloudy 49 9.5 44 6.5 82 82 Calm 30.07 1018 10 16 0.00 0.00
7:55 am 07:55 Cloudy 49 9.7 44 6.7 82 82 Calm 30.07 1018 10 16 0.00 0.00
8:15 am 08:15 Cloudy 50 10 46 7.5 84 84 Calm 30.07 1018 10 16 0.00 0.00
8:35 am 08:35 Cloudy 53 11.5 45 7 74 74 SW 6 9 30.09 1019 10 16 0.00 0.00
8:55 am 08:55 Cloudy 54 12.4 44 6.8 69 69 SW 5 7 30.08 1019 10 16 0.00 0.00
9:15 am 09:15 Cloudy 55 12.7 45 7 68 68 S 5 7 30.08 1019 10 16 0.00 0.00
9:35 am 09:35 Cloudy 56 13.2 45 7 66 66 WSW 3 6 30.09 1019 10 16 0.00 0.00
9:55 am 09:55 Cloudy 57 13.9 46 7.5 65 65 W 3 6 30.09 1019 10 16 0.00 0.00
10:15 am 10:15 Cloudy with Light Rain 57 14 46 7.7 66 66 Calm 30.08 1019 10 16 0.00 0.00
10:35 am 10:35 Cloudy 58 14.4 47 8.2 66 66 Calm 30.08 1018 10 16 0.00 0.00
10:55 am 10:55 Mostly Cloudy 60 15.6 47 8.4 62 62 S 6 9 30.07 1018 10 16 0.00 0.00
11:15 am 11:15 Partly Cloudy 64 18 47 8.5 54 54 SSW 7 11 30.05 1018 10 16 0.00 0.00
11:35 am 11:35 Sunny 65 18.4 48 8.8 54 54 SSW 5 7 30.05 1018 10 16 0.00 0.00
11:55 am 11:55 Sunny 66 18.9 48 8.7 52 52 SSW 8 13 30.05 1018 10 16 0.00 0.00
12:15 pm 12:15 Sunny 68 20 49 9.6 51 51 SSW 7 11 30.04 1017 10 16 0.00 0.00
12:35 pm 12:35 Sunny 70 21.1 49 9.4 47 47 S 7 11 30.03 1017 10 16 0.00 0.00
12:55 pm 12:55 Partly Cloudy 69 20.6 48 8.7 46 46 WSW 10 17 30.03 1017 10 16 0.00 0.00
1:15 pm 13:15 Mostly Cloudy 70 21 45 7.4 41 41 WSW 7 11 30.03 1017 10 16 0.00 0.00
1:35 pm 13:35 Cloudy 70 21.3 46 7.9 42 42 SW 9 15 30.02 1017 10 16 0.00 0.00
1:55 pm 13:55 Cloudy 70 20.9 48 8.8 46 46 WSW 6 9 30.01 1016 10 16 0.00 0.00
2:15 pm 14:15 Cloudy 71 21.5 48 9.1 45 45 WSW 8 13 30.01 1016 10 16 0.00 0.00
2:35 pm 14:35 Cloudy 72 22.4 46 7.6 39 39 WSW 8 13 30.00 1016 10 16 0.00 0.00
2:55 pm 14:55 Mostly Cloudy 72 22 44 6.9 38 38 WSW 7 11 29.99 1016 10 16 0.00 0.00
3:15 pm 15:15 Sunny 74 23.4 44 6.9 35 35 W 7 11 29.99 1015 10 16 0.00 0.00
3:35 pm 15:35 Sunny 75 23.7 42 5.5 31 31 SSW 8 13 29.98 1015 10 16 0.00 0.00
3:55 pm 15:55 Partly Cloudy 74 23.5 42 5.7 32 32 SW 8 13 29.97 1015 10 16 0.00 0.00
4:15 pm 16:15 Partly Cloudy 74 23.5 44 6.4 33 33 WSW 6 9 29.97 1015 10 16 0.00 0.00
4:35 pm 16:35 Sunny 74 23.4 43 6.1 33 33 W 10 17 29.97 1015 10 16 0.00 0.00
4:55 pm 16:55 Sunny 74 23.6 42 5.8 32 32 W 9 15 29.97 1015 10 16 0.00 0.00
5:15 pm 17:15 Sunny 74 23.4 42 5.7 32 32 SW 12 19 29.97 1015 10 16 0.00 0.00
5:35 pm 17:35 Sunny 73 23 42 5.7 33 33 W 8 13 29.98 1015 10 16 0.00 0.00
5:55 pm 17:55 Sunny 73 22.6 43 6 34 34 W 7 11 29.99 1016 10 16 0.00 0.00
6:15 pm 18:15 Sunny 72 22.1 42 5.7 34 34 W 7 11 29.99 1016 10 16 0.00 0.00
6:35 pm 18:35 Sunny 70 21.1 43 5.9 37 37 W 5 7 29.99 1016 10 16 0.00 0.00
6:55 pm 18:55 Sunny 68 20 42 5.7 39 39 W 3 6 30.01 1016 10 16 0.00 0.00
7:15 pm 19:15 Partly Cloudy 65 18.1 44 6.4 46 46 Calm 30.01 1016 10 16 0.00 0.00
7:35 pm 19:35 Mostly Cloudy 60 15.7 45 7.1 57 57 Calm 30.02 1017 10 16 0.00 0.00
7:55 pm 19:55 Partly Cloudy 60 15.3 44 6.9 57 57 Calm 30.03 1017 10 16 0.00 0.00
8:15 pm 20:15 Clear 56 13.5 46 7.8 68 68 SW 3 6 30.04 1017 10 16 0.00 0.00
8:35 pm 20:35 Clear 55 13 47 8.2 73 73 Calm 30.05 1018 10 16 0.00 0.00
8:55 pm 20:55 Clear 55 12.5 47 8.4 76 76 Calm 30.05 1018 10 16 0.00 0.00
9:15 pm 21:15 Partly Cloudy 53 11.5 46 7.8 78 78 Calm 30.06 1018 10 16 0.00 0.00
9:35 pm 21:35 Mostly Cloudy 53 11.6 47 8.6 82 82 Calm 30.06 1018 10 16 0.00 0.00
9:55 pm 21:55 Cloudy 53 11.8 48 9 83 83 Calm 30.05 1018 10 16 0.00 0.00
10:15 pm 22:15 Partly Cloudy 54 12.4 48 8.9 79 79 Calm 30.06 1018 10 16 0.00 0.00
10:35 pm 22:35 Mostly Cloudy 59 15 49 9.2 68 68 NW 9 15 30.06 1018 10 16 0.00 0.00
10:55 pm 22:55 Cloudy 60 15.7 52 11.2 75 75 NW 6 9 30.07 1018 10 16 0.00 0.00
11:15 pm 23:15 Mostly Cloudy 60 15.3 54 12 81 81 N 10 17 30.07 1018 10 16 0.00 0.00
11:35 pm 23:35 Cloudy 59 15 55 12.5 85 85 N 9 15 30.08 1019 10 16 0.00 0.00
11:55 pm 23:55 Cloudy 59 15 55 12.6 86 86 N 10 17 30.08 1019 10 16 0.00 0.00

Powered by AerisWeather